Location: Fort Collins
(40.5850°N, 105.0840°W)
Time: 04:20:25
(UTC-07:00)

Daily predictions for brighter satellites

Satellite Brightness Start Highest point End
(mag) Time Altitude Azimuth Time Altitude Azimuth Time Altitude Azimuth
USA 234 4.5 03:45:07 10° NE 03:48:36 34° NE 03:48:36 34° NE
Cosmos 2278 Rocket 3.6 04:04:21 35° ENE 04:04:21 35° ENE 04:08:15 10° NE
ATLAS CENTAUR R/B 4.3 04:07:33 14° ESE 04:07:33 14° ESE 04:08:21 10° ESE
Milstar 3 4.1 04:12:40 32° S 04:12:52 32° S 04:18:57 10° ESE
CZ-4C R/B 3.0 04:29:41 63° SSW 04:29:41 63° SSW 04:36:43 10° SSE
Cosmos 2181 Rocket 3.9 04:32:40 79° ENE 04:32:44 79° E 04:38:52 10° S
COSMO-SKYMED 1 4.4 04:29:19 10° SE 04:33:02 29° ENE 04:34:14 25° NE
H-2A R/B 4.1 04:35:41 44° SW 04:38:57 56° S 05:32:33 10° ESE
CZ-2C R/B 4.3 04:38:30 10° SSE 04:42:48 58° E 04:42:48 58° E
Cosmos 2082 Rocket 3.5 04:42:03 19° N 04:45:27 36° ENE 04:50:35 10° SE
Meteor 1-16 Rocket 4.3 04:40:17 10° S 04:45:48 69° E 04:51:13 10° NNE
Cosmos 1570 Rocket 3.9 04:53:37 86° E 04:53:37 86° E 04:58:48 10° SSE
NOSS 3-1 (C) 4.3 04:51:12 10° S 04:56:30 45° ESE 05:02:23 10° NE
Gbstr 26 Del rocket 4.1 04:56:56 41° SSW 04:58:55 64° SE 05:05:44 10° ENE
Okean-O 3.5 04:55:44 10° NNE 05:00:02 48° E 05:04:19 10° S
Cosmos 1833 Rocket 3.2 05:03:26 20° N 05:07:19 57° ENE 05:12:50 10° SE
Cosmos 1703 4.2 05:06:35 25° NNE 05:08:35 48° E 05:12:22 10° SSE
Cosmos 304 Rocket 4.3 05:07:22 24° N 05:10:05 57° ENE 05:14:47 10° SSE
Cosmos 1408 Rocket 3.4 05:10:03 70° N 05:10:34 89° E 05:14:58 10° S
Meteor 1-11 4.3 05:05:17 10° N 05:11:06 82° E 05:16:56 10° S
Cosmos 2297 4.1 05:08:03 10° S 05:13:42 64° ESE 05:19:22 10° NNE
Tiangong 2 2.4 05:18:08 37° NE 05:18:08 37° NE 05:20:21 10° ENE
SL-08 ROCKET BODY 4.5 05:17:38 47° W 05:17:46 47° WNW 05:23:30 10° N
Radarsat Rocket 4.3 05:14:04 10° NNE 05:20:31 70° ESE 05:26:23 10° S
SKYMED 2 3.4 05:16:36 10° SSE 05:20:56 85° W 05:22:50 33° NNW
Landsat 4 3.5 05:23:18 10° S 05:27:07 81° W 05:27:57 52° NNW
Cosmos 2184 Rocket 3.9 05:21:20 10° SSW 05:27:34 72° W 05:33:55 10° N
EO 1 Del DPAF 3.3 05:25:31 10° SSE 05:29:18 74° ENE 05:32:03 18° N
Meteor 2-1 Rocket 4.4 05:27:29 10° S 05:32:57 71° E 05:38:33 10° NNE
USA 234 4.3 05:28:31 10° NE 05:33:55 29° NNW 05:35:57 24° NW
BREEZE-M DEB (TANK) 4.2 05:33:08 28° NNW 05:34:46 43° NNE 05:44:13 10° E
Cosmos 1610 Rocket 4.5 05:30:45 10° S 05:37:04 86° W 05:43:30 10° N
Cosmos 1743 Rocket 3.4 05:35:56 10° N 05:40:18 90° WSW 05:44:40 10° S
ATLAS CENTAUR R/B 2.6 05:43:51 25° SW 05:43:51 25° SW 05:47:00 10° S
CZ-2C R/B 2.2 05:39:35 10° N 05:44:15 81° WNW 05:49:01 10° SSW
SJ-12 4.3 05:40:10 10° NNE 05:44:17 68° E 05:48:24 10° S
Nadezhda 3 Rocket 4.1 05:38:53 10° N 05:45:15 81° E 05:51:31 10° S
Cosmos 2278 Rocket 3.0 05:46:16 28° WNW 05:47:09 29° NW 05:52:04 10° N
BREEZE-M DEB (TANK) 3.3 05:47:36 21° NNW 05:47:57 22° N 05:51:20 10° NE
PAYLOAD A 3.9 05:43:19 10° N 05:48:00 51° WNW 05:52:32 10° SSW
Shenzhou-11 Module 1.9 05:48:58 55° WNW 05:49:31 79° NNE 05:52:32 10° ESE
Cosmos 1726 2.8 05:49:23 10° S 05:53:02 58° E 05:56:41 10° NNE
SL-8 R/B 3.7 05:51:46 26° W 05:54:21 62° NNW 05:59:08 10° ENE
USA 229 DEB 4.0 05:50:50 18° WSW 05:55:32 43° NW 06:02:07 10° NNE
USA 229 4.0 05:50:52 18° WSW 05:55:38 43° NW 06:02:12 10° NNE
Cosmos 2058 2.9 05:51:30 10° NNW 05:55:39 57° W 05:59:45 10° S
MINOTAUR R/B 3.8 05:56:56 56° S 05:56:56 56° S 05:58:42 10° SSE
SL-27 R/B 3.6 05:56:59 26° WSW 05:56:59 26° WSW 05:59:45 10° SSW
NOSS 3-1 (A) 3.4 05:52:01 10° SSW 05:57:42 88° ESE 06:04:06 10° NE
Cosmos 1626 3.8 05:59:24 18° WSW 05:59:24 18° WSW 06:00:52 10° SW
Cosmos 2074 Rocket 4.4 05:52:32 10° SW 05:58:17 39° WNW 06:04:04 10° N
USA 81 4.3 05:55:51 10° N 06:01:09 72° E 06:06:23 10° S
SMAP 4.2 05:57:45 10° NNE 06:02:16 47° E 06:06:44 10° S
Lacrosse 5 rocket 3.9 06:01:22 10° S 06:04:11 21° ESE 06:07:05 10° ENE
CZ-4 R/B 3.2 06:03:11 10° NNE 06:06:54 34° E 06:10:32 10° SSE
IDEFIX/ARIANE 42P 3.1 06:03:22 10° N 06:08:10 36° WNW 06:12:55 10° SW
Cosmos 841 Rocket 3.4 06:03:18 10° NNW 06:08:28 79° WSW 06:13:35 10° SSE
CZ-3B R/B 4.4 06:06:26 19° NW 06:09:05 83° SW 06:22:37 10° SE
COSMO-SKYMED 1 3.6 06:05:37 10° SSW 06:09:09 24° W 06:11:27 16° NW
Cosmos 1814 Rocket 4.1 06:04:45 10° NNW 06:09:47 52° WSW 06:14:45 10° S
Thor Agena Rocket 3.8 06:06:31 10° SSE 06:11:45 78° ENE 06:17:04 10° NNW
Cosmos 1809 Rocket 4.4 06:08:49 10° SSW 06:14:56 68° W 06:21:04 10° N
GPS 2-04 Rocket1 4.4 06:12:44 13° WSW 06:15:34 24° SSW 06:19:02 10° SE
Cosmos 1763 Rocket 3.7 06:10:43 10° NNW 06:15:36 47° WSW 06:20:30 10° S
CZ-4C R/B 4.4 06:14:57 13° W 06:16:24 13° WSW 06:19:54 10° SW
SJ-7 4.5 06:13:01 10° NNE 06:17:17 90° NNE 06:21:31 10° SSW
Abrixas rocket 4.4 06:18:48 11° WSW 06:19:48 12° SW 06:21:16 10° SSW
Cosmos 1908 3.9 06:16:28 10° SW 06:20:00 32° WNW 06:23:35 10° NNW
Cosmos 1805 Rocket 4.1 06:15:44 10° N 06:20:03 62° E 06:24:22 10° SSE
USA 102 4.1 06:18:32 10° SE 06:20:25 16° ESE 06:21:04 12° ENE
Cosmos 1842 Rocket 4.3 06:17:51 10° SW 06:21:53 32° WNW 06:25:57 10° NNW
Meteor 2-15 4.4 06:17:10 10° NNW 06:23:07 61° W 06:29:04 10° S
Meteor 2-21 Rocket 4.4 06:17:30 10° SSW 06:23:42 77° W 06:29:54 10° N
ORS 1 (USA 231) 4.1 06:22:29 18° W 06:24:15 74° S 06:26:49 10° E
Cosmos 1503 Rocket 4.1 06:21:08 10° SSW 06:26:18 83° ESE 06:31:33 10° NNE
CSL-04 Debris 4.5 06:21:51 10° NNE 06:27:22 75° ESE 06:32:50 10° S
Cosmos 2151 4.0 06:25:15 10° NNW 06:28:50 26° W 06:32:25 10° SW
Cosmos 2082 Rocket 3.0 06:24:31 10° NW 06:29:24 31° WSW 06:34:16 10° SSW
Cosmos 1943 Rocket 4.2 06:25:08 10° SSE 06:30:08 33° ESE 06:35:10 10° NE
Cosmos 2369 Rocket 3.1 06:27:21 10° S 06:32:45 53° ESE 06:38:12 10° NNE
Cosmos 1486 Rocket 4.3 06:28:41 10° SW 06:33:46 44° WNW 06:38:53 10° N
Okean-O 4.1 06:33:22 10° NNW 06:36:07 16° WNW 06:38:50 10° WSW
MSX 4.4 06:31:19 10° N 06:36:29 36° WNW 06:41:38 10° SW
EXPRESS MD2 4.3 06:41:42 10° SW 06:45:38 84° SE 06:54:05 10° ENE
Cosmos 1666 Rocket 3.8 06:41:19 10° N 06:45:44 74° E 06:50:03 10° SSE
Cosmos 2341 Rocket 4.3 06:40:05 10° SSW 06:46:00 45° WNW 06:51:56 10° N
NOSS 3-1 (C) 4.1 06:42:14 10° WSW 06:47:28 34° NW 06:53:21 10° NNE
Cosmos 1892 4.2 06:44:22 10° N 06:48:01 40° ENE 06:51:36 10° SSE
Ariane Rocket 3.0 06:45:14 10° N 06:50:20 71° WNW 06:55:24 10° SSW
Cosmos 1833 Rocket 4.0 06:46:48 10° NW 06:50:44 20° W 06:54:37 10° SW
ALOS 3.4 06:46:35 10° NNE 06:51:09 51° E 06:55:41 10° S
